| time (UTC) | temp C | wind direction | speed KPH | gust KPH | rain 1hr cm | rain 24hr cm | rain mn cm | humidity % | barometer mb |
| 20260505223841 | 26 | 178 | 3.2 | 11.3 | 0.08 | 1.88 | 1.88 | 30 | 1006.9 |
| 20260505223354 | 26 | 87 | 1.6 | 12.9 | 0.08 | 1.88 | 1.88 | 31 | 1006.9 |
| 20260505223048 | 26 | 128 | 1.6 | 12.9 | 0.08 | 1.88 | 1.88 | 31 | 1006.3 |
| 20260505222846 | 26 | 152 | 4.8 | 12.9 | 0.08 | 1.88 | 1.88 | 31 | 1007.0 |
| 20260505222357 | 26 | 215 | 4.8 | 14.5 | 0.08 | 1.88 | 1.88 | 31 | 1007.0 |
| 20260505221847 | 26 | 268 | 4.8 | 12.9 | 0.08 | 1.88 | 1.88 | 30 | 1007.0 |
| 20260505221502 | 26 | 180 | 3.2 | 12.9 | 0.08 | 1.88 | 1.88 | 30 | 1006.4 |
| 20260505221400 | 27 | 210 | 4.8 | 12.9 | 0.08 | 1.88 | 1.88 | 30 | 1007.0 |
| 20260505220852 | 27 | 173 | 4.8 | 19.3 | 0.08 | 1.88 | 1.88 | 29 | 1007.0 |
| 20260505220046 | 27 | 182 | 3.2 | 12.9 | 0.03 | 1.83 | 1.83 | 26 | 1006.2 |
| 20260505215846 | 27 | 188 | 3.2 | 11.3 | 0.03 | 1.88 | 1.83 | 26 | 1006.8 |
| 20260505214902 | 27 | 202 | 8.0 | 24.1 | 0.08 | 1.88 | 1.83 | 25 | 1006.7 |
| 20260505214614 | 27 | 153 | 3.2 | 11.3 | 0.05 | 1.85 | 1.80 | 26 | 1006.1 |
| 20260505214353 | 28 | 123 | 1.6 | 6.4 | 0.05 | 1.85 | 1.80 | 27 | 1006.7 |
| 20260505213846 | 28 | 75 | 1.6 | 6.4 | 0.05 | 1.85 | 1.80 | 26 | 1006.7 |
| 20260505213339 | 28 | 137 | 0.0 | 4.8 | 0.05 | 1.85 | 1.80 | 27 | 1006.8 |
| 20260505213055 | 27 | 209 | 1.6 | 4.8 | 0.05 | 1.85 | 1.80 | 27 | 1006.0 |
| 20260505212851 | 27 | 140 | 1.6 | 4.8 | 0.05 | 1.85 | 1.80 | 26 | 1006.7 |
| 20260505212345 | 28 | 199 | 1.6 | 6.4 | 0.08 | 1.85 | 1.80 | 26 | 1006.8 |
| 20260505211917 | 28 | 69 | 1.6 | 11.3 | 0.08 | 1.85 | 1.80 | 26 | 1006.8 |
| 20260505211548 | 28 | 35 | 0.0 | 11.3 | 0.08 | 1.85 | 1.80 | 26 | 1006.1 |
| 20260505211347 | 28 | 158 | 3.2 | 11.3 | 0.08 | 1.85 | 1.80 | 27 | 1006.8 |
| 20260505210839 | 28 | 123 | 3.2 | 9.7 | 0.08 | 1.85 | 1.80 | 26 | 1006.8 |
| 20260505210352 | 28 | 90 | 1.6 | 9.7 | 0.08 | 1.85 | 1.80 | 25 | 1006.6 |
| 20260505210047 | 28 | 168 | 3.2 | 9.7 | 0.08 | 1.85 | 1.80 | 25 | 1006.0 |
| 20260505205846 | 28 | 94 | 1.6 | 8.0 | 0.08 | 1.96 | 1.80 | 27 | 1006.7 |
| 20260505205339 | 28 | 130 | 1.6 | 8.0 | 0.03 | 1.91 | 1.75 | 26 | 1006.7 |
| 20260505204852 | 28 | 169 | 3.2 | 8.0 | 0.03 | 1.91 | 1.75 | 27 | 1006.5 |
| 20260505204545 | 28 | 117 | 0.0 | 6.4 | 0.05 | 1.91 | 1.75 | 26 | 1005.9 |
| 20260505204344 | 28 | 118 | 1.6 | 6.4 | 0.08 | 1.91 | 1.75 | 26 | 1006.6 |
| 20260505203837 | 28 | 132 | 1.6 | 6.4 | 0.08 | 1.91 | 1.75 | 27 | 1006.7 |
| 20260505203349 | 28 | 50 | 3.2 | 8.0 | 0.08 | 1.91 | 1.75 | 26 | 1006.7 |
| 20260505203042 | 28 | 53 | 0.0 | 12.9 | 0.08 | 1.91 | 1.75 | 25 | 1006.1 |
| 20260505202842 | 28 | 187 | 0.0 | 12.9 | 0.10 | 1.91 | 1.75 | 25 | 1006.8 |
| 20260505202353 | 28 | 44 | 3.2 | 11.3 | 0.13 | 1.88 | 1.73 | 26 | 1006.7 |
| 20260505201846 | 28 | 209 | 3.2 | 11.3 | 0.13 | 1.88 | 1.73 | 25 | 1006.8 |
| 20260505201600 | 28 | 148 | 0.0 | 11.3 | 0.13 | 1.88 | 1.73 | 25 | 1006.1 |
| 20260505201358 | 28 | 54 | 3.2 | 11.3 | 0.13 | 1.88 | 1.73 | 25 | 1006.7 |
| 20260505200850 | 29 | 5 | 3.2 | 11.3 | 0.13 | 1.88 | 1.73 | 25 | 1006.8 |
| 20260505200343 | 29 | 112 | 4.8 | 16.1 | 0.13 | 1.88 | 1.73 | 25 | 1006.9 |
| 20260505200054 | 29 | 158 | 8.0 | 16.1 | 0.13 | 1.88 | 1.73 | 25 | 1006.1 |
| 20260505195853 | 29 | 51 | 3.2 | 16.1 | 0.15 | 1.91 | 1.73 | 25 | 1006.9 |
| 20260505195345 | 29 | 88 | 3.2 | 17.7 | 0.15 | 1.91 | 1.73 | 23 | 1006.8 |
| 20260505194839 | 30 | 80 | 6.4 | 17.7 | 0.20 | 1.91 | 1.73 | 23 | 1006.8 |
| 20260505194553 | 29 | 115 | 3.2 | 9.7 | 0.18 | 1.88 | 1.70 | 24 | 1006.2 |
| 20260505194352 | 30 | 145 | 1.6 | 12.9 | 0.18 | 1.85 | 1.68 | 24 | 1006.9 |
| 20260505193904 | 30 | 167 | 1.6 | 12.9 | 0.23 | 1.85 | 1.68 | 23 | 1007.0 |
| 20260505193337 | 30 | 71 | 4.8 | 16.1 | 0.23 | 1.85 | 1.68 | 24 | 1006.9 |
| 20260505193049 | 29 | 69 | 4.8 | 22.5 | 0.23 | 1.85 | 1.68 | 23 | 1006.4 |
| 20260505192849 | 30 | 171 | 6.4 | 22.5 | 0.20 | 1.83 | 1.65 | 23 | 1007.1 |
| 20260505192342 | 31 | 126 | 4.8 | 12.9 | 0.15 | 1.78 | 1.60 | 23 | 1007.1 |
| 20260505191853 | 31 | 83 | 1.6 | 12.9 | 0.15 | 1.78 | 1.60 | 24 | 1007.0 |
| 20260505191507 | 30 | 288 | 4.8 | 12.9 | 0.15 | 1.78 | 1.60 | 23 | 1006.4 |
| 20260505191407 | 30 | 128 | 3.2 | 11.3 | 0.18 | 1.78 | 1.60 | 24 | 1007.1 |
| 20260505190853 | 30 | 96 | 4.8 | 14.5 | 0.28 | 1.78 | 1.60 | 22 | 1007.3 |
| 20260505190348 | 30 | 99 | 4.8 | 17.7 | 0.28 | 1.78 | 1.60 | 23 | 1007.2 |
| 20260505190039 | 30 | 101 | 4.8 | 17.7 | 0.28 | 1.78 | 1.60 | 22 | 1006.7 |
| 20260505185835 | 31 | 113 | 6.4 | 16.1 | 0.25 | 1.78 | 1.57 | 23 | 1007.4 |
| 20260505185349 | 30 | 78 | 6.4 | 16.1 | 0.28 | 1.78 | 1.57 | 23 | 1007.6 |
| 20260505184921 | 30 | 80 | 3.2 | 25.7 | 0.23 | 1.73 | 1.52 | 23 | 1007.7 |
| 20260505184550 | 29 | 17 | 6.4 | 25.7 | 0.23 | 1.73 | 1.52 | 23 | 1007.1 |
| 20260505184349 | 29 | 102 | 6.4 | 19.3 | 0.23 | 1.70 | 1.50 | 24 | 1007.8 |
| 20260505183341 | 28 | 49 | 4.8 | 16.1 | 0.46 | 1.65 | 1.45 | 25 | 1007.8 |
| 20260505183119 | 28 | 76 | 4.8 | 16.1 | 0.46 | 1.65 | 1.42 | 25 | 1007.2 |
| 20260505182853 | 29 | 309 | 11.3 | 16.1 | 0.46 | 1.65 | 1.45 | 24 | 1007.9 |
| 20260505182405 | 29 | 144 | 3.2 | 17.7 | 0.46 | 1.65 | 1.45 | 27 | 1008.0 |
| 20260505181838 | 29 | 258 | 4.8 | 17.7 | 0.46 | 1.65 | 1.45 | 25 | 1008.0 |
| 20260505181552 | 28 | 43 | 6.4 | 17.7 | 0.46 | 1.65 | 1.42 | 26 | 1007.5 |
| 20260505181351 | 29 | 208 | 4.8 | 12.9 | 0.43 | 1.63 | 1.42 | 27 | 1008.1 |
| 20260505180843 | 28 | 44 | 3.2 | 17.7 | 0.33 | 1.52 | 1.32 | 27 | 1008.3 |
| 20260505180357 | 28 | 84 | 8.0 | 17.7 | 0.33 | 1.52 | 1.32 | 27 | 1008.3 |
| 20260505180047 | 28 | 17 | 1.6 | 11.3 | 0.33 | 1.52 | 1.32 | 27 | 1007.8 |
| 20260505175845 | 28 | 42 | 3.2 | 11.3 | 0.43 | 1.88 | 1.32 | 28 | 1008.4 |
| 20260505175339 | 28 | 190 | 3.2 | 12.9 | 0.46 | 1.85 | 1.30 | 28 | 1008.5 |
| 20260505174851 | 28 | 130 | 4.8 | 25.7 | 0.46 | 1.85 | 1.30 | 29 | 1008.4 |
| 20260505174505 | 28 | 5 | 4.8 | 25.7 | 0.46 | 1.85 | 1.30 | 28 | 1007.8 |
| 20260505174405 | 28 | 19 | 4.8 | 25.7 | 0.43 | 1.83 | 1.27 | 30 | 1008.4 |
| 20260505173836 | 28 | 198 | 3.2 | 19.3 | 0.20 | 1.55 | 0.99 | 29 | 1008.5 |
| 20260505173349 | 28 | 138 | 3.2 | 19.3 | 0.20 | 1.55 | 0.99 | 29 | 1008.5 |
| 20260505173051 | 28 | 360 | 6.4 | 19.3 | 0.25 | 1.55 | 0.99 | 30 | 1008.0 |
| 20260505172843 | 28 | 184 | 4.8 | 17.7 | 0.28 | 1.55 | 0.99 | 29 | 1008.6 |
| 20260505171541 | 27 | 47 | 1.6 | 14.5 | 0.41 | 1.55 | 0.99 | 31 | 1008.3 |
| 20260505170024 | 26 | 331 | 8.0 | 24.1 | 0.46 | 1.52 | 0.97 | 31 | 1008.6 |
| 20260505164523 | 26 | 52 | 6.4 | 17.7 | 0.36 | 1.45 | 0.84 | 31 | 1008.8 |
| 20260505163022 | 25 | 128 | 4.8 | 16.1 | 0.23 | 1.35 | 0.71 | 33 | 1009.2 |
| 20260505161521 | 26 | 225 | 4.8 | 17.7 | 0.10 | 1.22 | 0.58 | 33 | 1009.1 |
| 20260505153017 | 26 | 98 | 4.8 | 19.3 | 0.30 | 1.22 | 0.48 | 36 | 1009.6 |
| 20260505151513 | 25 | 65 | 4.8 | 17.7 | 0.30 | 1.22 | 0.48 | 38 | 1009.6 |
| 20260505140357 | 23 | 235 | 6.4 | 16.1 | 0.13 | 0.91 | 0.13 | 43 | 1009.7 |
| 20260505124543 | 18 | 157 | 4.8 | 9.7 | 0.00 | 0.79 | 0.00 | 64 | 1010.0 |
| 20260505123039 | 16 | 94 | 0.0 | 4.8 | 0.00 | 0.79 | 0.00 | 76 | 1010.2 |
| 20260505121539 | 15 | 174 | 1.6 | 6.4 | 0.00 | 0.79 | 0.00 | 76 | 1010.4 |
| 20260505120057 | 13 | 355 | 1.6 | 4.8 | 0.00 | 0.79 | 0.00 | 83 | 1010.4 |
| 20260505114529 | 11 | 69 | 0.0 | 3.2 | 0.00 | 0.79 | 0.00 | 93 | 1010.7 |
| 20260505113028 | 10 | 65 | 0.0 | 1.6 | 0.00 | 0.79 | 0.00 | 94 | 1010.6 |
| 20260505111527 | 9 | 65 | 0.0 | 0.0 | 0.00 | 0.79 | 0.00 | 95 | 1010.4 |
| 20260505101522 | 8 | 65 | 0.0 | 0.0 | 0.00 | 0.79 | 0.00 | 95 | 1009.7 |
| 20260505100022 | 8 | 65 | 0.0 | 0.0 | 0.00 | 0.79 | 0.00 | 95 | 1009.6 |
| 20260505094516 | 8 | 65 | 0.0 | 0.0 | 0.00 | 0.79 | 0.00 | 94 | 1009.6 |
| 20260505093014 | 8 | 65 | 0.0 | 3.2 | 0.00 | 0.79 | 0.00 | 94 | 1009.6 |
| 20260505091523 | 8 | 65 | 0.0 | 0.0 | 0.00 | 0.79 | 0.00 | 94 | 1009.4 |
| 20260505090026 | 8 | 65 | 0.0 | 0.0 | 0.00 | 0.79 | 0.00 | 94 | 1009.3 |
| 20260505084510 | 8 | 65 | 0.0 | 3.2 | 0.00 | 0.79 | 0.00 | 93 | 1009.3 |
| 20260505083009 | 8 | 65 | 0.0 | 0.0 | 0.00 | 0.79 | 0.00 | 93 | 1009.4 |
| 20260505081512 | 8 | 65 | 0.0 | 0.0 | 0.00 | 0.79 | 0.00 | 93 | 1009.3 |
| 20260505080007 | 8 | 65 | 0.0 | 0.0 | 5.71 | 0.00 | 0.00 | 94 | 1009.3 |
| 20260505074506 | 8 | 65 | 0.0 | 0.0 | 0.00 | 0.79 | 0.00 | 94 | 1009.2 |
| 20260505073004 | 8 | 65 | 0.0 | 0.0 | 0.00 | 0.79 | 0.00 | 94 | 1009.0 |
| 20260505071511 | 8 | 65 | 0.0 | 0.0 | 0.00 | 0.79 | 0.00 | 93 | 1008.8 |
| 20260505070002 | 8 | 65 | 0.0 | 1.6 | 0.00 | 0.79 | 0.00 | 93 | 1008.9 |
| 20260505064559 | 8 | 65 | 0.0 | 0.0 | 0.00 | 0.79 | 0.00 | 92 | 1009.1 |
| 20260505063058 | 8 | 65 | 0.0 | 3.2 | 0.00 | 0.79 | 0.00 | 92 | 1009.1 |
| 20260505061558 | 9 | 65 | 0.0 | 0.0 | 0.00 | 0.79 | 0.00 | 91 | 1009.1 |
| 20260505060054 | 9 | 65 | 0.0 | 0.0 | 0.00 | 0.79 | 0.00 | 91 | 1009.1 |
| 20260505054616 | 10 | 65 | 0.0 | 0.0 | 0.00 | 0.79 | 0.00 | 90 | 1009.1 |
| 20260505053101 | 10 | 65 | 0.0 | 0.0 | 0.00 | 0.79 | 0.00 | 89 | 1009.1 |
| 20260505051548 | 10 | 65 | 0.0 | 0.0 | 0.00 | 0.79 | 0.00 | 89 | 1009.1 |
| 20260505041559 | 11 | 65 | 0.0 | 1.6 | 0.00 | 0.79 | 0.00 | 86 | 1009.1 |
| 20260505041353 | 11 | 65 | 0.0 | 1.6 | 0.00 | 0.79 | 0.00 | 86 | 1009.5 |
| 20260505040905 | 11 | 65 | 0.0 | 0.0 | 0.00 | 0.79 | 0.00 | 85 | 1009.5 |
| 20260505040358 | 11 | 65 | 0.0 | 0.0 | 0.00 | 0.79 | 0.00 | 84 | 1009.5 |
| 20260505040008 | 11 | 65 | 0.0 | 0.0 | 0.00 | 0.79 | 0.00 | 84 | 1009.2 |
| 20260505035908 | 12 | 65 | 0.0 | 0.0 | 0.00 | 0.79 | 0.79 | 84 | 1009.5 |
| 20260505035359 | 12 | 65 | 0.0 | 1.6 | 0.00 | 0.79 | 0.79 | 83 | 1009.5 |
| 20260505034852 | 12 | 65 | 0.0 | 1.6 | 0.00 | 0.79 | 0.79 | 84 | 1009.5 |
| 20260505034546 | 11 | 65 | 0.0 | 1.6 | 0.00 | 0.79 | 0.79 | 84 | 1009.3 |
| 20260505034344 | 12 | 64 | 0.0 | 0.0 | 0.00 | 0.79 | 0.79 | 84 | 1009.6 |
| 20260505033837 | 12 | 64 | 0.0 | 0.0 | 0.00 | 0.79 | 0.79 | 83 | 1009.5 |
| 20260505033349 | 12 | 64 | 0.0 | 0.0 | 0.00 | 0.79 | 0.79 | 82 | 1009.5 |
| 20260505033143 | 12 | 64 | 0.0 | 0.0 | 0.00 | 0.79 | 0.79 | 82 | 1009.3 |
| 20260505032842 | 12 | 64 | 0.0 | 0.0 | 0.00 | 0.79 | 0.79 | 81 | 1009.5 |
| 20260505032415 | 12 | 64 | 0.0 | 0.0 | 0.00 | 0.79 | 0.79 | 81 | 1009.6 |
| 20260505031846 | 12 | 64 | 0.0 | 0.0 | 0.00 | 0.79 | 0.79 | 81 | 1009.6 |
| 20260505031610 | 12 | 64 | 0.0 | 0.0 | 0.00 | 0.79 | 0.79 | 81 | 1009.3 |
| 20260505031359 | 12 | 64 | 0.0 | 0.0 | 0.00 | 0.00 | 0.79 | 80 | 1009.4 |
| 20260505030909 | 13 | 64 | 0.0 | 0.0 | 0.00 | 0.79 | 0.79 | 80 | 1009.6 |
| 20260505030442 | 13 | 63 | 0.0 | 0.0 | 0.00 | 0.79 | 0.79 | 79 | 1009.6 |
| 20260505030047 | 12 | 64 | 0.0 | 0.0 | 0.00 | 0.79 | 0.79 | 79 | 1009.3 |
| 20260505025847 | 13 | 64 | 0.0 | 0.0 | 0.00 | 0.79 | 0.79 | 79 | 1009.6 |
| 20260505025340 | 13 | 64 | 0.0 | 0.0 | 0.00 | 0.79 | 0.79 | 79 | 1009.6 |
| 20260505024912 | 13 | 64 | 0.0 | 0.0 | 0.00 | 0.79 | 0.79 | 78 | 1009.6 |
| 20260505024545 | 13 | 64 | 0.0 | 0.0 | 0.00 | 0.79 | 0.79 | 77 | 1009.3 |
| 20260505024345 | 13 | 64 | 0.0 | 0.0 | 0.00 | 0.79 | 0.79 | 76 | 1009.6 |
| 20260505023838 | 13 | 64 | 0.0 | 0.0 | 0.00 | 0.79 | 0.79 | 77 | 1009.7 |
| 20260505023412 | 14 | 64 | 0.0 | 0.0 | 0.00 | 0.79 | 0.79 | 76 | 1009.8 |
| 20260505023047 | 13 | 64 | 0.0 | 0.0 | 0.00 | 0.79 | 0.79 | 74 | 1009.5 |
| 20260505022843 | 14 | 64 | 0.0 | 0.0 | 0.00 | 0.79 | 0.79 | 74 | 1009.8 |
| 20260505022416 | 14 | 64 | 0.0 | 0.0 | 0.00 | 0.79 | 0.79 | 73 | 1009.7 |
| 20260505021848 | 14 | 64 | 0.0 | 0.0 | 0.00 | 0.79 | 0.79 | 73 | 1009.7 |
| 20260505021542 | 14 | 64 | 0.0 | 0.0 | 0.00 | 0.79 | 0.79 | 73 | 1009.4 |
| 20260505021342 | 15 | 64 | 0.0 | 0.0 | 0.00 | 0.79 | 0.79 | 73 | 1009.7 |
| 20260505020855 | 15 | 64 | 0.0 | 0.0 | 0.00 | 0.79 | 0.79 | 73 | 1009.6 |
| 20260505020348 | 15 | 64 | 0.0 | 0.0 | 0.00 | 0.79 | 0.79 | 71 | 1009.6 |
| 20260505020037 | 15 | 64 | 0.0 | 0.0 | 0.00 | 0.79 | 0.79 | 70 | 1009.4 |
| 20260505015837 | 15 | 64 | 0.0 | 0.0 | 0.00 | 0.79 | 0.79 | 70 | 1009.6 |
| 20260505015350 | 15 | 64 | 0.0 | 0.0 | 0.00 | 0.79 | 0.79 | 69 | 1009.6 |
| 20260505014842 | 15 | 64 | 0.0 | 0.0 | 0.00 | 0.79 | 0.79 | 68 | 1009.5 |
| 20260505014604 | 15 | 64 | 0.0 | 0.0 | 0.00 | 0.79 | 0.79 | 68 | 1009.2 |
| 20260505014355 | 16 | 64 | 0.0 | 0.0 | 0.00 | 0.79 | 0.79 | 68 | 1009.4 |
| 20260505013847 | 16 | 64 | 0.0 | 0.0 | 0.00 | 0.79 | 0.79 | 68 | 1009.4 |
| 20260505013339 | 16 | 64 | 0.0 | 0.0 | 0.00 | 0.79 | 0.79 | 68 | 1009.3 |
| 20260505013033 | 16 | 64 | 0.0 | 0.0 | 0.00 | 0.79 | 0.79 | 69 | 1009.0 |
| 20260505012932 | 16 | 64 | 0.0 | 0.0 | 0.00 | 0.79 | 0.79 | 69 | 1009.2 |
| 20260505012341 | 16 | 64 | 0.0 | 0.0 | 0.00 | 0.79 | 0.79 | 69 | 1009.1 |
| 20260505011913 | 17 | 64 | 0.0 | 0.0 | 0.00 | 0.79 | 0.79 | 67 | 1009.1 |
| 20260505011608 | 16 | 64 | 0.0 | 0.0 | 0.00 | 0.79 | 0.79 | 66 | 1008.8 |
| 20260505011504 | 17 | 64 | 0.0 | 0.0 | 0.00 | 0.79 | 0.79 | 65 | 1009.0 |
| 20260505010848 | 17 | 64 | 0.0 | 0.0 | 0.00 | 0.79 | 0.79 | 61 | 1008.9 |
| 20260505010341 | 17 | 64 | 0.0 | 0.0 | 0.00 | 0.79 | 0.79 | 61 | 1008.8 |
| 20260505010051 | 17 | 64 | 0.0 | 0.0 | 0.00 | 0.79 | 0.79 | 60 | 1008.5 |
| 20260505005850 | 17 | 64 | 0.0 | 0.0 | 0.00 | 0.79 | 0.79 | 59 | 1008.7 |
| 20260505005343 | 18 | 64 | 0.0 | 0.0 | 0.00 | 0.79 | 0.79 | 61 | 1008.6 |
| 20260505004837 | 18 | 64 | 0.0 | 0.0 | 0.00 | 0.79 | 0.79 | 60 | 1008.5 |
| 20260505004555 | 18 | 64 | 0.0 | 0.0 | 0.00 | 0.79 | 0.79 | 60 | 1008.3 |
| 20260505004350 | 18 | 64 | 0.0 | 0.0 | 0.00 | 0.79 | 0.79 | 59 | 1008.4 |
| 20260505003923 | 18 | 64 | 0.0 | 1.6 | 0.00 | 0.79 | 0.79 | 59 | 1008.4 |
| 20260505003411 | 18 | 64 | 0.0 | 1.6 | 0.00 | 0.79 | 0.79 | 58 | 1008.4 |
| 20260505003001 | 18 | 63 | 0.0 | 0.0 | 0.00 | 0.79 | 0.79 | 57 | 1008.0 |
| 20260505002901 | 19 | 63 | 0.0 | 0.0 | 0.00 | 0.79 | 0.79 | 57 | 1008.3 |
| 20260505002354 | 19 | 63 | 0.0 | 1.6 | 0.00 | 0.79 | 0.79 | 59 | 1008.4 |
| 20260505001846 | 19 | 63 | 0.0 | 1.6 | 0.00 | 0.79 | 0.79 | 60 | 1008.3 |
| 20260505001540 | 19 | 63 | 0.0 | 1.6 | 0.00 | 0.79 | 0.79 | 56 | 1008.0 |
| 20260505001339 | 20 | 63 | 0.0 | 1.6 | 0.00 | 0.79 | 0.79 | 58 | 1008.2 |
| 20260505000849 | 20 | 63 | 0.0 | 1.6 | 0.00 | 0.79 | 0.79 | 53 | 1008.1 |
| 20260505000343 | 20 | 63 | 0.0 | 3.2 | 0.00 | 0.79 | 0.79 | 53 | 1008.1 |
| 20260505000018 | 20 | 63 | 0.0 | 3.2 | 0.00 | 0.79 | 0.79 | 52 | 1007.9 |
| 20260504235910 | 20 | 63 | 0.0 | 3.2 | 0.00 | 0.79 | 0.79 | 51 | 1008.1 |
| 20260504235341 | 21 | 63 | 0.0 | 3.2 | 0.00 | 0.79 | 0.79 | 48 | 1007.9 |
| 20260504234855 | 21 | 65 | 0.0 | 3.2 | 0.00 | 0.79 | 0.79 | 51 | 1007.9 |
| 20260504234549 | 21 | 65 | 0.0 | 6.4 | 0.00 | 0.79 | 0.79 | 49 | 1007.7 |
| 20260504234348 | 21 | 63 | 0.0 | 6.4 | 0.00 | 0.79 | 0.79 | 47 | 1007.9 |
| 20260504233841 | 22 | 153 | 1.6 | 4.8 | 0.00 | 0.79 | 0.79 | 48 | 1007.8 |
| 20260504233354 | 22 | 81 | 1.6 | 4.8 | 0.00 | 0.79 | 0.79 | 46 | 1007.8 |
| 20260504233027 | 22 | 138 | 0.0 | 4.8 | 0.00 | 0.79 | 0.79 | 45 | 1007.6 |
| 20260504232926 | 22 | 95 | 0.0 | 4.8 | 0.00 | 0.79 | 0.79 | 45 | 1007.8 |
| 20260504232434 | 22 | 71 | 0.0 | 4.8 | 0.00 | 0.79 | 0.79 | 45 | 1007.7 |
| 20260504231841 | 22 | 192 | 1.6 | 4.8 | 0.00 | 0.79 | 0.79 | 49 | 1007.7 |
| 20260504231555 | 22 | 94 | 0.0 | 4.8 | 0.00 | 0.79 | 0.79 | 49 | 1007.5 |
| 20260504231355 | 22 | 94 | 0.0 | 4.8 | 0.00 | 0.79 | 0.79 | 45 | 1007.7 |
| 20260504230907 | 22 | 136 | 1.6 | 4.8 | 0.00 | 0.79 | 0.79 | 43 | 1007.7 |
| 20260504230340 | 22 | 94 | 1.6 | 6.4 | 0.00 | 0.79 | 0.79 | 44 | 1007.7 |
| 20260504225849 | 23 | 94 | 0.0 | 6.4 | 0.00 | 0.86 | 0.79 | 42 | 1007.6 |
| 20260504225342 | 23 | 96 | 1.6 | 3.2 | 0.00 | 0.86 | 0.79 | 40 | 1007.6 |
| 20260504224855 | 23 | 96 | 1.6 | 3.2 | 0.00 | 0.86 | 0.79 | 42 | 1007.6 |
| 20260504224508 | 22 | 97 | 0.0 | 1.6 | 0.03 | 0.86 | 0.79 | 42 | 1007.5 |
| 20260504224406 | 23 | 97 | 0.0 | 3.2 | 0.03 | 0.86 | 0.79 | 46 | 1007.7 |